EW0860 Weather Reports


time (UTC)temp
C
wind
direction
speed
KPH
gust
KPH
rain 1hr
cm
rain 24hr
cm
rain mn
cm
humidity
%
barometer
mb
20260507221501 21 359 9.7 20.9 0.00 0.00 0.00 44 1007.7
20260507220100 21 359 4.8 24.1 0.00 0.00 0.00 44 1007.7
20260507214558 21 209 9.7 20.9 0.00 0.00 0.00 45 1007.8
20260507213100 21 170 11.3 33.8 0.00 0.00 0.00 45 1007.9
20260507211555 21 210 11.3 29.0 0.00 0.00 0.00 44 1008.2
20260507210053 21 209 8.0 27.4 0.00 0.00 0.00 45 1008.3
20260507204550 21 147 8.0 22.5 0.00 0.00 0.00 48 1008.4
20260507203046 20 123 8.0 25.7 0.00 0.00 0.00 47 1008.9
20260507201549 20 143 8.0 27.4 0.00 0.00 0.00 48 1009.1
20260507200044 20 118 6.4 24.1 0.00 0.00 0.00 50 1009.4
20260507194539 20 234 6.4 35.4 0.00 0.00 0.00 52 1009.7
20260507193041 20 270 12.9 25.7 0.00 0.00 0.00 49 1010.0
20260507191535 19 213 11.3 30.6 0.00 0.00 0.00 49 1010.2
20260507190033 18 143 9.7 29.0 0.00 0.00 0.00 51 1010.2
20260507184533 18 200 9.7 24.1 0.00 0.00 0.00 53 1010.4
20260507183034 19 235 11.3 24.1 0.00 0.00 0.00 51 1010.5
20260507181525 18 283 1.6 20.9 0.00 0.00 0.00 54 1010.8
20260507180037 18 210 14.5 30.6 0.00 0.00 0.00 52 1011.1
20260507174524 18 216 11.3 24.1 0.00 0.00 0.00 51 1011.5
20260507173023 17 249 11.3 22.5 0.00 0.00 0.00 52 1011.9
20260507171514 17 241 6.4 25.7 0.00 0.00 0.00 54 1011.9
20260507170029 17 212 9.7 22.5 0.00 0.00 0.00 55 1012.1
20260507164508 16 265 6.4 27.4 0.00 0.00 0.00 57 1012.4
20260507163006 16 253 9.7 27.4 0.00 0.00 0.00 57 1012.8
20260507161506 16 316 9.7 22.5 0.00 0.00 0.00 56 1012.9
20260507160002 16 243 8.0 19.3 0.00 0.00 0.00 58 1013.0
20260507154602 15 260 8.0 27.4 0.00 0.00 0.00 60 1013.0
20260507153107 15 209 9.7 20.9 0.00 0.00 0.00 60 1013.0
20260507151555 15 284 3.2 20.9 0.00 0.00 0.00 62 1013.2
20260507150055 14 185 9.7 27.4 0.00 0.00 0.00 62 1013.4
20260507144550 14 224 8.0 17.7 0.00 0.00 0.00 65 1013.6
20260507143057 13 152 4.8 24.1 0.00 0.00 0.00 65 1013.6
20260507141547 13 195 6.4 17.7 0.00 0.00 0.00 67 1013.5
20260507140040 12 306 4.8 17.7 0.00 0.00 0.00 70 1013.8
20260507134536 12 281 6.4 19.3 0.00 0.00 0.00 72 1013.6
20260507133042 11 170 4.8 16.1 0.00 0.00 0.00 74 1013.6
20260507131537 10 175 4.8 14.5 0.00 0.00 0.00 76 1013.7
20260507130034 10 210 6.4 12.9 0.00 0.00 0.00 77 1013.9
20260507124528 9 207 4.8 14.5 0.00 0.00 0.00 78 1014.1
20260507123028 8 175 1.6 12.9 0.00 0.00 0.00 80 1014.0
20260507121527 8 212 4.8 11.3 0.00 0.00 0.00 81 1014.1
20260507120027 7 20 3.2 8.0 0.00 0.00 0.00 81 1014.0
20260507114524 7 210 4.8 11.3 0.00 0.00 0.00 81 1013.9
20260507113026 7 198 1.6 9.7 0.00 0.00 0.00 81 1013.9
20260507111522 7 220 1.6 8.0 0.00 0.00 0.00 80 1013.8
20260507110019 7 204 3.2 8.0 0.00 0.00 0.00 79 1013.7
20260507104517 7 276 3.2 8.0 0.00 0.00 0.00 78 1013.8
20260507103016 7 238 4.8 9.7 0.00 0.00 0.00 77 1013.8
20260507101517 7 139 0.0 8.0 0.00 0.00 0.00 76 1014.0
20260507100016 7 222 0.0 4.8 0.00 0.00 0.00 75 1014.1
20260507094510 7 193 3.2 8.0 0.00 0.00 0.00 74 1014.1
20260507093013 8 225 0.0 6.4 0.00 0.00 0.00 72 1014.1
20260507091504 8 179 0.0 11.3 0.00 0.00 0.00 71 1014.2
20260507090004 8 199 1.6 6.4 0.00 0.00 0.00 71 1014.3
20260507084503 8 226 3.2 11.3 0.00 0.00 0.00 70 1014.3
20260507083100 8 215 3.2 8.0 0.00 0.00 0.00 69 1014.4
20260507081600 8 214 3.2 11.3 0.00 0.00 0.00 69 1014.4
20260507080057 8 216 3.2 8.0 0.00 0.00 0.00 68 1014.4
20260507074603 8 216 1.6 8.0 0.00 0.00 0.00 66 1014.5
20260507073055 9 210 3.2 8.0 0.00 0.00 0.00 66 1014.5
20260507071604 9 218 1.6 9.7 0.00 0.00 0.00 65 1014.6
20260507064554 9 222 1.6 8.0 0.00 0.00 0.00 63 1014.9
20260507063048 10 216 1.6 8.0 0.00 0.00 0.00 62 1015.0
20260507061547 10 239 3.2 9.7 0.00 0.03 0.00 60 1015.1
20260507060045 10 246 3.2 12.9 0.00 0.03 0.00 59 1015.1
20260507054605 11 248 4.8 9.7 0.00 0.03 0.00 58 1015.2
20260507053041 10 283 1.6 6.4 0.00 0.03 0.00 65 1015.2
20260507051546 8 329 0.0 0.0 0.00 0.03 0.03 77 1015.1
20260507050046 7 336 0.0 0.0 0.00 0.03 0.03 79 1015.1
20260507044539 7 336 0.0 0.0 0.00 0.03 0.03 79 1015.2
20260507043036 7 336 0.0 0.0 0.00 0.03 0.03 78 1015.2
20260507041540 7 336 0.0 0.0 0.00 0.03 0.03 77 1015.2
20260507040040 7 336 0.0 0.0 0.00 0.03 0.03 75 1015.3
20260507034535 7 336 0.0 0.0 0.00 0.03 0.03 76 1015.4
20260507033036 7 336 0.0 0.0 0.00 0.03 0.03 74 1015.5
20260507031539 7 336 0.0 0.0 0.00 0.03 0.03 73 1015.3
20260507030033 7 336 0.0 0.0 0.00 0.03 0.03 73 1015.4
20260507024537 7 336 0.0 0.0 0.00 0.03 0.03 71 1015.2
20260507023033 8 336 0.0 0.0 0.00 0.03 0.03 70 1015.1
20260507021537 8 333 0.0 0.0 0.00 0.03 0.03 67 1015.0
20260507020031 9 335 0.0 0.0 0.00 0.03 0.03 64 1014.9
20260507014534 10 336 0.0 0.0 0.00 0.03 0.03 61 1014.7
20260507013036 11 336 0.0 0.0 0.00 0.03 0.03 56 1014.7
20260507011538 12 335 0.0 3.2 0.00 0.03 0.03 50 1014.7
20260507010040 14 333 0.0 3.2 0.00 0.03 0.03 42 1014.5
20260507004529 15 336 0.0 6.4 0.00 0.03 0.03 36 1014.6
20260507003029 15 354 3.2 8.0 0.00 0.03 0.03 35 1014.6
20260507001546 16 359 0.0 6.4 0.00 0.03 0.03 35 1014.6
20260507000032 16 359 3.2 11.3 0.00 0.03 0.03 34 1014.6
20260506234527 16 359 1.6 9.7 0.00 0.03 0.03 34 1014.8
20260506233029 16 31 4.8 11.3 0.00 0.03 0.03 35 1014.7
20260506231527 16 32 6.4 16.1 0.00 0.03 0.03 34 1014.7
20260506230029 16 36 1.6 11.3 0.00 0.03 0.03 36 1014.8
20260506224525 16 35 6.4 16.1 0.00 0.03 0.03 33 1014.8
20260506223025 16 35 4.8 14.5 0.00 0.03 0.03 33 1014.9